Location: Carrières
(48.9495°N, 2.0407°E)
Time: 21:25:30
(UTC+00:00)

Courier 1B Rocket - Pass Details

Date: 19 April 2024
Orbit: 920 x 1201 km, 28.2° (Epoch: 25 May)

Event Time Altitude Azimuth Distance (km) Brightness Sun altitude
Rises 06:33:46 0° 233° (SW) 3,895 7.7 15.6°
Reaches altitude 10° 06:38:37 10° 205° (SSW) 2,864 7.3 16.4°
Maximum altitude 06:41:09 12° 184° (S) 2,664 7.4 16.8°
Drops below altitude 10° 06:43:38 10° 162° (SSE) 2,787 7.7 17.2°
Sets 06:48:10 0° 133° (SE) 3,670 8.8 17.9°
